Waarnemingen

Advertentie
Mijn weer
Oviedo, Spanje (8015): temperatuur & dauwpunt: 09.08.2020 04:00:00 - 15.08.2020 04:00:00 (CEST)Oviedo, Spanje (8015): windsnelheid: 09.08.2020 04:00:00 - 15.08.2020 04:00:00 (CEST)Oviedo, Spanje (8015): windrichting: 09.08.2020 04:00:00 - 15.08.2020 04:00:00 (CEST)Oviedo, Spanje (8015): luchtdruk: 09.08.2020 04:00:00 - 15.08.2020 04:00:00 (CEST)Oviedo, Spanje (8015): zicht: 09.08.2020 04:00:00 - 15.08.2020 04:00:00 (CEST)Oviedo, Spanje (8015): neerslag: 09.08.2020 04:00:00 - 15.08.2020 04:00:00 (CEST)
Datum & Tijd tt [°C] td [°C] ff [km/u] ff [kn] dd ppp [hPa] vv [km] rr [mm]
15.08.2020 04:00:00 - - - - - - - -
15.08.2020 03:00:00 17,0 16,2 4 2 O 1015,4 13 0,0
15.08.2020 02:00:00 17,0 16,0 2 1 W 1015,9 13 -
15.08.2020 01:00:00 17,0 16,0 4 2 O 1016,0 17 0,0
15.08.2020 00:00:00 17,7 16,2 2 1 ZO 1016,3 18 0,0
14.08.2020 23:00:00 18,1 16,3 4 2 WNW 1016,5 20 -
14.08.2020 22:00:00 18,8 16,2 5 3 O 1016,2 20 0,0
14.08.2020 21:00:00 19,2 15,7 4 2 NO 1016,0 20 0,0
14.08.2020 20:00:00 19,7 15,8 2 1 W 1015,7 20 -
14.08.2020 19:00:00 20,0 15,0 5 3 N 1015,6 20 0,0
14.08.2020 18:00:00 20,3 14,2 13 7 N 1015,5 20 0,0
14.08.2020 17:00:00 21,3 14,7 11 6 NNO 1015,5 20 -
14.08.2020 16:00:00 21,6 15,2 9 5 NO 1015,7 20 0,0
14.08.2020 15:00:00 21,9 15,5 13 7 NO 1015,8 20 0,0
14.08.2020 14:00:00 21,1 15,2 9 5 NO 1016,1 20 -
14.08.2020 13:00:00 21,1 14,7 5 3 ONO 1016,2 19 0,0
14.08.2020 12:00:00 21,1 14,7 5 3 O 1016,4 20 0,0
14.08.2020 11:00:00 19,6 15,3 4 2 O 1016,6 20 -
14.08.2020 10:00:00 17,8 15,6 2 1 ZZW 1017,2 17 0,0
14.08.2020 09:00:00 16,9 15,1 4 2 Z 1017,3 20 0,0
14.08.2020 08:00:00 16,5 14,9 4 2 Z 1017,5 20 -
14.08.2020 07:00:00 16,3 14,5 4 2 ZO 1017,4 20 0,0
14.08.2020 06:00:00 16,2 14,4 5 3 ZO 1017,5 20 0,0
14.08.2020 05:00:00 16,6 14,6 8 4 ZO 1017,8 20 -
14.08.2020 04:00:00 16,7 14,7 2 1 NNW 1018,0 20 0,0
14.08.2020 03:00:00 17,0 14,8 2 1 ZO 1018,5 20 0,0
14.08.2020 02:00:00 17,1 14,9 2 1 ZZO 1018,9 20 -
14.08.2020 01:00:00 17,3 14,4 4 2 O 1019,0 20 0,0
14.08.2020 00:00:00 17,4 14,3 5 3 ONO 1019,1 20 0,0
13.08.2020 23:00:00 17,5 14,2 5 3 ONO 1019,2 20 -
13.08.2020 22:00:00 17,9 14,2 8 4 NO 1019,1 20 0,0
13.08.2020 21:00:00 18,4 13,5 11 6 NO 1018,7 20 0,0
13.08.2020 20:00:00 19,3 13,2 11 6 NNO 1018,1 20 -
13.08.2020 19:00:00 19,9 13,8 9 5 NO 1018,0 20 0,0
13.08.2020 18:00:00 20,5 14,2 8 4 NNO 1017,7 20 0,0
13.08.2020 17:00:00 20,9 14,5 5 3 NO 1017,8 20 -
13.08.2020 16:00:00 20,3 14,2 11 6 N 1018,0 20 0,0
13.08.2020 15:00:00 20,9 14,5 9 5 NNO 1017,7 20 0,0
13.08.2020 14:00:00 21,0 14,6 9 5 N 1017,8 20 -
13.08.2020 13:00:00 19,9 14,3 8 4 NNW 1018,0 16 0,0
13.08.2020 12:00:00 19,6 14,6 5 3 WNW 1018,0 20 0,0
13.08.2020 11:00:00 18,0 14,5 5 3 NW 1017,8 20 -
13.08.2020 10:00:00 17,4 14,9 2 1 Z 1017,8 20 0,0
13.08.2020 09:00:00 15,8 15,3 5 3 Z 1017,9 20 0,0
13.08.2020 08:00:00 15,4 14,6 5 3 ZZW 1017,5 20 -
13.08.2020 07:00:00 15,4 14,1 5 3 ZW 1017,1 20 0,0
13.08.2020 06:00:00 15,4 13,9 4 2 WZW 1017,1 20 0,0
13.08.2020 05:00:00 15,4 14,8 5 3 ZZW 1017,1 20 -
13.08.2020 04:00:00 15,5 14,0 5 3 W 1017,3 20 0,0
13.08.2020 03:00:00 15,5 14,5 5 3 ZZW 1017,6 20 0,2
13.08.2020 02:00:00 15,5 14,0 9 5 WNW 1017,4 20 -
13.08.2020 01:00:00 15,5 14,4 9 5 NW 1017,5 20 0,0
13.08.2020 00:00:00 15,4 14,6 5 3 WNW 1017,5 20 0,0
12.08.2020 23:00:00 15,4 14,8 15 8 NW 1017,0 20 -
12.08.2020 22:00:00 15,3 14,8 11 6 WNW 1016,3 20 0,2
12.08.2020 21:00:00 15,7 15,5 15 8 WNW 1015,8 14 0,2
12.08.2020 20:00:00 16,5 16,3 16 9 WNW 1015,1 15 -
12.08.2020 19:00:00 16,8 16,8 11 6 WNW 1014,5 9 1,0
12.08.2020 18:00:00 17,3 17,3 13 7 WNW 1013,9 9 0,8
12.08.2020 17:00:00 17,5 17,2 16 9 W 1013,5 4,0 -
12.08.2020 16:00:00 18,2 18,0 8 4 WNW 1013,0 3,6 3,0
12.08.2020 15:00:00 18,9 18,7 11 6 WNW 1012,5 6 0,0
12.08.2020 14:00:00 19,0 18,5 5 3 NW 1012,1 9 -
12.08.2020 13:00:00 19,8 18,3 8 4 WNW 1012,0 8 0,0
12.08.2020 12:00:00 19,5 18,8 4 2 WNW 1011,9 4,9 0,0
12.08.2020 11:00:00 19,0 18,8 2 1 ZW 1011,9 3,0 -
12.08.2020 10:00:00 18,4 18,4 2 1 WNW 1011,8 3,5 0,0
12.08.2020 09:00:00 18,0 18,0 4 2 Z 1011,5 0,3 0,2
12.08.2020 08:00:00 17,7 17,7 5 3 W 1011,8 2,5 -
12.08.2020 07:00:00 17,9 17,9 4 2 WNW 1011,6 0,1 0,0
12.08.2020 06:00:00 18,0 18,0 4 2 ZO 1011,3 1,7 0,0
12.08.2020 05:00:00 18,3 18,3 4 2 N 1011,6 3,9 -
12.08.2020 04:00:00 18,4 18,4 4 2 ZZW 1012,4 3,7 0,0
12.08.2020 03:00:00 18,5 18,3 4 2 W 1012,9 - 0,0
12.08.2020 02:00:00 18,5 18,5 2 1 NNW 1013,3 1,9 -
12.08.2020 01:00:00 18,6 18,6 2 1 ZO 1013,5 1,6 0,0
12.08.2020 00:00:00 18,8 18,6 5 3 W 1013,9 1,5 0,0
11.08.2020 23:00:00 18,9 18,7 5 3 NW 1013,8 - -
11.08.2020 22:00:00 19,1 18,9 4 2 ZO 1012,9 3,3 0,0
11.08.2020 21:00:00 19,2 19,0 2 1 NNW 1012,1 7 0,4
11.08.2020 20:00:00 19,3 19,1 8 4 ONO 1012,0 6 -
11.08.2020 19:00:00 19,0 19,0 8 4 WNW 1011,8 4,3 0,2
11.08.2020 18:00:00 19,0 19,0 13 7 W 1012,6 0,1 1,0
11.08.2020 17:00:00 19,5 19,0 2 1 NO 1013,5 4,0 -
11.08.2020 16:00:00 19,9 19,2 8 4 ONO 1012,8 0,6 17,0
11.08.2020 15:00:00 22,0 17,8 8 4 N 1012,1 14 0,0
11.08.2020 14:00:00 21,7 17,9 9 5 N 1011,9 15 -
11.08.2020 13:00:00 21,6 18,0 5 3 WNW 1012,1 17 0,0
11.08.2020 12:00:00 20,1 18,0 4 2 W 1012,6 14 0,0
11.08.2020 11:00:00 19,7 18,0 5 3 NW 1012,4 13 -
11.08.2020 10:00:00 19,0 18,0 5 3 WNW 1012,5 8 0,0
11.08.2020 09:00:00 18,3 17,7 2 1 NW 1012,4 6 0,0
11.08.2020 08:00:00 17,7 17,5 2 1 WNW 1012,7 2,0 -
11.08.2020 07:00:00 18,1 17,3 0 0 N 1012,4 10 0,0
11.08.2020 06:00:00 18,0 17,2 2 1 ONO 1012,7 10 0,0
11.08.2020 05:00:00 18,0 17,2 0 0 N 1012,6 10 -
11.08.2020 04:00:00 18,0 17,0 4 2 ZO 1013,0 12 0,0
11.08.2020 03:00:00 18,0 17,2 2 1 ZZO 1013,7 9 0,0
11.08.2020 02:00:00 18,1 17,3 5 3 ZZO 1014,1 9 -
11.08.2020 01:00:00 18,2 17,4 4 2 ZO 1014,3 - 0,0
11.08.2020 00:00:00 18,6 17,4 4 2 OZO 1014,1 4,1 0,2
10.08.2020 23:00:00 19,0 17,7 4 2 Z 1014,1 13 -
10.08.2020 22:00:00 19,2 17,7 4 2 Z 1013,7 14 0,0
10.08.2020 21:00:00 19,4 17,7 2 1 ZW 1013,4 17 0,0
10.08.2020 20:00:00 19,5 17,5 4 2 WNW 1013,3 20 -
10.08.2020 19:00:00 19,8 17,0 8 4 N 1013,4 19 0,0
10.08.2020 18:00:00 20,6 17,4 8 4 NNW 1013,0 20 0,0
10.08.2020 17:00:00 20,7 17,1 8 4 NO 1013,0 20 -
10.08.2020 16:00:00 21,0 17,8 8 4 O 1013,4 20 0,0
10.08.2020 15:00:00 21,4 17,4 5 3 NNO 1013,0 20 0,0
10.08.2020 14:00:00 21,5 16,9 4 2 N 1013,0 20 -
10.08.2020 13:00:00 20,7 17,5 5 3 NW 1013,1 20 0,0
10.08.2020 12:00:00 19,9 17,9 4 2 WNW 1013,6 20 0,0
10.08.2020 11:00:00 18,9 17,6 2 1 ZZW 1013,9 20 -
10.08.2020 10:00:00 18,0 17,5 2 1 ZZO 1014,0 13 0,0
10.08.2020 09:00:00 17,5 17,3 4 2 ZZO 1014,3 4,4 0,0
10.08.2020 08:00:00 17,2 17,2 4 2 Z 1014,1 1,0 -
10.08.2020 07:00:00 16,8 16,8 4 2 WNW 1014,0 - 0,0
10.08.2020 06:00:00 17,2 17,0 4 2 W 1013,7 0,4 0,6
10.08.2020 05:00:00 17,6 17,4 2 1 Z 1014,0 1,2 -
10.08.2020 04:00:00 17,8 17,6 4 2 N 1014,3 0,6 0,2
10.08.2020 03:00:00 17,8 17,6 2 1 ZZO 1014,7 1,2 0,0
10.08.2020 02:00:00 18,2 17,7 0 0 N 1014,8 2,1 -
10.08.2020 01:00:00 18,5 17,8 2 1 ZO 1015,1 3,7 0,0
10.08.2020 00:00:00 18,8 17,3 5 3 ZO 1015,6 15 0,0
09.08.2020 23:00:00 19,2 17,7 5 3 ZO 1015,9 19 -
09.08.2020 22:00:00 19,2 17,3 4 2 O 1015,3 20 0,0
09.08.2020 21:00:00 19,5 17,8 8 4 O 1015,1 17 0,2
09.08.2020 20:00:00 19,9 17,7 8 4 ONO 1014,7 15 -
09.08.2020 19:00:00 20,8 18,2 8 4 ONO 1014,5 15 0,0
09.08.2020 18:00:00 22,3 18,1 8 4 ONO 1014,6 20 0,0
09.08.2020 17:00:00 22,9 18,4 5 3 ONO 1014,8 15 -
09.08.2020 16:00:00 22,1 18,5 4 2 ONO 1015,1 10 0,0
09.08.2020 15:00:00 21,2 18,6 4 2 N 1015,6 9 0,0
09.08.2020 14:00:00 20,9 18,7 5 3 O 1016,0 5 -
09.08.2020 13:00:00 20,1 18,4 2 1 O 1016,4 6 0,0
09.08.2020 12:00:00 19,2 18,4 4 2 NW 1016,6 11 0,0
09.08.2020 11:00:00 18,2 18,2 4 2 NW 1017,0 1,0 -
09.08.2020 10:00:00 18,0 18,0 5 3 WNW 1017,0 0,1 0,0
09.08.2020 09:00:00 18,0 18,0 4 2 WNW 1017,1 0,1 0,0
09.08.2020 08:00:00 17,9 17,9 2 1 WNW 1016,9 0,1 -
09.08.2020 07:00:00 17,9 17,9 2 1 WNW 1016,8 0,1 0,0
09.08.2020 06:00:00 18,2 17,7 2 1 NNO 1017,3 2,6 0,0
09.08.2020 05:00:00 18,5 18,0 8 4 NO 1017,7 1,8 -
09.08.2020 04:00:00 18,9 17,6 5 3 ZO 1017,9 1,5 0,0

tt = temperatuur
td = dauwpunt
ff = windsnelheid
dd = windrichting
ppp = luchtdruk
vv = zicht
rr = neerslag

Weerstations in de omgeving